Location: Unspecified
(0.0000°N, 0.0000°E)
Time: 14:30:37
(UTC+00:00)

Altair - Pass Details

Date: 02 November 2021
Orbit: 1502 x 1682 km, 47.2° (Epoch: 26 November)

Event Time Altitude Azimuth Distance (km) Brightness Sun altitude
Rises 20:12:58 0° 210° (SSW) 4,733 10.7 -35.9°
Reaches altitude 10° 20:16:11 10° 205° (SSW) 3,725 9.9 -36.6°
Enters shadow 20:23:09 46° 169° (S) 1,943 7.9 -38.3°
Maximum altitude 20:25:15 54° 130° (SE) 1,779 - -38.8°
Drops below altitude 10° 20:34:06 10° 55° (NE) 3,644 - -40.9°
Sets 20:37:11 0° 50° (NE) 4,623 - -41.6°
